ロニオス彗星

376P/LONEOS (2019)

English version
Home page
Updated on May 17, 2020

---------------------------------------------------------------------

・ プロフィール

符号 376P/2018 X1
検出日 2018年12月4日
検出光度 20.6等
検出者 Erwin Schwab (Egelsbach, Germany), D. Abreu (European Space Agency's Optical Ground Station, Tenerife)

・ 写真集

・ 軌道要素

Epoch 2019 Oct. 4.0 TT = JDT 2458760.5
T 2019 Sept. 29.24285 TT                                MPCW
q   2.8308286            (2000.0)            P               Q
n   0.06943139     Peri.  285.40758     -0.49541826     +0.86852944
a   5.8627155      Node   314.88533     -0.78878277     -0.45690940
e   0.5171472      Incl.    1.19232     -0.36384405     -0.19206877
P  14.20
From 304 observations 2005 Apr. 2-2019 May 11, mean residual 0".5.

・ 光度変化

        m1 = 11.5 + 5 logΔ + 10.0 log r

---------------------------------------------------------------------

軌道要素はM.P.E.C. 2019-J142に掲載されたものです。
光度グラフはComet for Windowsで作成したものです。

---------------------------------------------------------------------

Copyright(C) Seiichi Yoshida (comet@aerith.net). All rights reserved.